TimeEDT,TemperatureF,Dew PointF,Humidity,Sea Level PressureIn,VisibilityMPH,Wind Direction,Wind SpeedMPH,Gust SpeedMPH,PrecipitationIn,Events,Conditions,WindDirDegrees,DateUTC
12:53 AM,72.0,69.1,91,30.00,10.0,WNW,4.6,-,N/A,,Clear,290,2013-07-29 04:53:00
1:53 AM,71.1,69.1,93,30.00,10.0,Calm,Calm,-,N/A,,Clear,0,2013-07-29 05:53:00
2:53 AM,71.1,66.9,87,29.99,10.0,Calm,Calm,-,N/A,,Clear,0,2013-07-29 06:53:00
3:53 AM,69.1,66.9,93,30.00,9.0,Calm,Calm,-,N/A,,Clear,0,2013-07-29 07:53:00
4:53 AM,68.0,66.9,96,30.01,7.0,Calm,Calm,-,N/A,,Clear,0,2013-07-29 08:53:00
5:53 AM,66.9,66.0,97,30.03,7.0,Calm,Calm,-,N/A,,Clear,0,2013-07-29 09:53:00
6:53 AM,66.9,64.0,90,30.04,10.0,Calm,Calm,-,N/A,,Clear,0,2013-07-29 10:53:00
7:53 AM,70.0,64.0,81,30.06,10.0,Calm,Calm,-,N/A,,Clear,0,2013-07-29 11:53:00
8:53 AM,75.0,64.0,69,30.08,10.0,NE,4.6,-,N/A,,Clear,50,2013-07-29 12:53:00
9:53 AM,77.0,64.0,64,30.08,10.0,NE,8.1,-,N/A,,Clear,50,2013-07-29 13:53:00
10:53 AM,77.0,64.0,64,30.10,5.0,NE,4.6,-,N/A,,Haze,50,2013-07-29 14:53:00
10:55 AM,78.8,64.4,61,30.13,7.0,NE,4.6,-,N/A,,Clear,50,2013-07-29 14:55:00
11:53 AM,78.1,64.9,64,30.10,10.0,Variable,3.5,-,N/A,,Clear,0,2013-07-29 15:53:00
12:53 PM,80.1,66.0,62,30.10,10.0,Variable,3.5,-,N/A,,Clear,0,2013-07-29 16:53:00
1:53 PM,82.9,66.0,56,30.09,10.0,Variable,3.5,-,N/A,,Clear,0,2013-07-29 17:53:00
2:53 PM,82.0,64.0,54,30.07,10.0,Calm,Calm,-,N/A,,Clear,0,2013-07-29 18:53:00
3:53 PM,84.0,64.9,53,30.06,10.0,Calm,Calm,-,N/A,,Clear,0,2013-07-29 19:53:00
4:53 PM,84.9,66.9,55,30.06,9.0,SSW,5.8,-,N/A,,Scattered Clouds,210,2013-07-29 20:53:00
5:53 PM,84.0,66.9,56,30.06,10.0,SSE,8.1,-,N/A,,Clear,160,2013-07-29 21:53:00
6:53 PM,81.0,69.1,67,30.06,10.0,SE,5.8,-,N/A,,Clear,130,2013-07-29 22:53:00
7:53 PM,77.0,69.1,76,30.08,10.0,SE,3.5,-,N/A,,Clear,130,2013-07-29 23:53:00
8:53 PM,75.9,68.0,76,30.10,9.0,SSE,5.8,-,N/A,,Clear,150,2013-07-30 00:53:00
9:53 PM,75.0,69.1,82,30.12,10.0,SE,4.6,-,N/A,,Clear,130,2013-07-30 01:53:00
10:53 PM,73.9,68.0,82,30.14,10.0,Calm,Calm,-,N/A,,Clear,0,2013-07-30 02:53:00
11:53 PM,71.1,68.0,90,30.14,10.0,Calm,Calm,-,N/A,,Clear,0,2013-07-30 03:53:00